Location: Newark
(33.4453°N, 112.0669°W)
Time: 02:37:37
(UTC+00:00)

LightSail 2 - Pass Details

Date: 26 January 2020
Orbit: 698 x 724 km, 24.0° (Epoch: 26 February)

Event Time Altitude Azimuth Distance (km) Brightness Sun altitude
Rises 03:14:49 0° 255° (WSW) 3,081 9.6 -29.6°
Reaches altitude 10° 03:18:06 10° 234° (SW) 2,167 8.3 -30.3°
Maximum altitude 03:21:10 16° 197° (SSW) 1,799 7.4 -30.9°
Enters shadow 03:21:22 16° 194° (SSW) 1,801 7.4 -30.9°
